Stanton, MN

5:56 PM CST on December 15, 2019 (GMT -0600)
Stanton

Weather History for KSYN - October, 2019

Change the Weather History Date:

Monday, October 21, 2019

  Actual Average (WUND) Record (WUND)
Temperature  
Mean Temperature 50 °F -  
Max Temperature 57 °F - - (-1)
Min Temperature 45 °F - - (-1)
Degree Days  
Heating Degree Days 14    
Moisture  
Dew Point 45 °F    
Average Humidity 83    
Maximum Humidity 96    
Minimum Humidity 57    
Precipitation  
Precipitation 0.79 in - - ()
Sea Level Pressure  
Sea Level Pressure 29.30 in    
Wind  
Wind Speed 9 mph ()    
Max Wind Speed 15 mph    
Max Gust Speed 26 mph    
Visibility 8.9 miles    
Events Rain    
Averages and records for this station are not official NWS values.
T = Trace of Precipitation, MM = Missing Value Source: Averaged Metar Reports

Daily Weather History Graph

Daily Weather History Graph

Search for Another Location

Airport or City:

Astronomy

Oct. 21, 2019 Rise Set
Actual Time 7:34 AM CDT 6:18 PM CDT
Civil Twilight 7:05 AM CDT 6:47 PM CDT
Nautical Twilight 6:31 AM CDT 7:21 PM CDT
Astronomical Twilight 5:57 AM CDT 7:55 PM CDT
Moon No Moon Rise 3:01 PM CDT (10/21)
Length of Visible Light 11h 42m
Length of Day
10h 43m
Waning Gibbous, 48% of the Moon is Illuminated
Oct 21
Waning Gibbous
Oct 27
New
Nov 4
First Quarter
Nov 12
Full
Nov 19
Last Quarter

Hourly Weather History & Observations

Time (CDT) Temp. Windchill Dew Point Humidity Pressure Visibility Wind Dir Wind Speed Gust Speed Precip Events Conditions
12:15 AM 55.4 °F - 45.3 °F 69% 29.73 in 10.0 mi ESE 11.5 mph - N/A   Mostly Cloudy
12:16 AM 55.4 °F - 45.1 °F 68% 29.73 in 10.0 mi ESE 11.5 mph - N/A   Mostly Cloudy
12:35 AM 55.0 °F - 45.1 °F 69% 29.72 in 10.0 mi East 12.7 mph 18.4 mph N/A   Mostly Cloudy
12:55 AM 55.4 °F - 44.8 °F 67% 29.71 in 10.0 mi ESE 11.5 mph 16.1 mph N/A   Overcast
12:56 AM 55.4 °F - 44.8 °F 67% 29.71 in 10.0 mi ESE 11.5 mph 16.1 mph N/A   Overcast
1:15 AM 55.6 °F - 44.6 °F 67% 29.69 in 10.0 mi East 11.5 mph 18.4 mph N/A   Overcast
1:35 AM 55.2 °F - 44.2 °F 67% 29.66 in 10.0 mi East 12.7 mph 16.1 mph N/A   Overcast
1:36 AM 55.2 °F - 44.2 °F 67% 29.66 in 10.0 mi East 13.8 mph - N/A   Overcast
1:55 AM 55.4 °F - 43.9 °F 65% 29.67 in 10.0 mi ESE 10.4 mph 16.1 mph N/A   Overcast
2:15 AM 55.0 °F - 43.7 °F 66% 29.66 in 10.0 mi ESE 8.1 mph - N/A   Overcast
2:35 AM 55.0 °F - 43.3 °F 65% 29.67 in 10.0 mi ESE 10.4 mph - N/A   Overcast
2:55 AM 55.8 °F - 41.0 °F 58% 29.65 in 10.0 mi ESE 10.4 mph 20.7 mph N/A   Overcast
3:15 AM 55.4 °F - 40.6 °F 58% 29.64 in 10.0 mi ESE 15.0 mph 18.4 mph N/A   Overcast
3:16 AM 55.4 °F - 40.5 °F 57% 29.63 in 10.0 mi ESE 11.5 mph 18.4 mph N/A   Overcast
3:35 AM 55.0 °F - 40.1 °F 57% 29.62 in 10.0 mi ESE 10.4 mph 16.1 mph N/A   Overcast
3:55 AM 53.6 °F - 41.4 °F 63% 29.60 in 10.0 mi East 8.1 mph - N/A   Light Drizzle
4:15 AM 52.5 °F - 42.3 °F 68% 29.58 in 10.0 mi ESE 9.2 mph - N/A Rain Rain
4:16 AM 52.7 °F - 42.1 °F 67% 29.58 in 10.0 mi East 9.2 mph - N/A Rain Rain
4:35 AM 52.0 °F - 42.3 °F 69% 29.56 in 10.0 mi ESE 9.2 mph 17.3 mph N/A Rain Light Rain
4:55 AM 52.0 °F - 42.1 °F 69% 29.55 in 10.0 mi East 8.1 mph - N/A   Drizzle
4:56 AM 52.0 °F - 42.3 °F 69% 29.55 in 10.0 mi East 8.1 mph - N/A   Drizzle
5:15 AM 50.2 °F - 43.5 °F 78% 29.53 in 10.0 mi East 11.5 mph 18.4 mph N/A Rain Light Rain
5:16 AM 50.2 °F - 43.7 °F 78% 29.53 in 10.0 mi East 12.7 mph 18.4 mph N/A Rain Light Rain
5:35 AM 49.1 °F - 44.1 °F 83% 29.51 in 10.0 mi East 9.2 mph - 0.01 in Rain Rain
5:55 AM 48.4 °F - 44.2 °F 86% 29.50 in 10.0 mi East 8.1 mph - 0.01 in   Overcast
5:56 AM 48.4 °F - 44.2 °F 86% 29.50 in 10.0 mi East 8.1 mph - 0.01 in   Overcast
6:15 AM 48.2 °F - 44.6 °F 87% 29.48 in 10.0 mi East 8.1 mph - 0.01 in Rain Rain
6:35 AM 47.7 °F - 44.8 °F 90% 29.46 in 7.0 mi East 10.4 mph - 0.07 in Rain Rain
6:36 AM 47.7 °F - 45.0 °F 90% 29.46 in 7.0 mi East 10.4 mph - 0.08 in Rain Rain
6:55 AM 47.7 °F - 45.5 °F 92% 29.44 in 7.0 mi ENE 12.7 mph 17.3 mph 0.12 in Rain Rain
7:15 AM 47.5 °F - 45.7 °F 93% 29.42 in 7.0 mi NE 9.2 mph - 0.04 in Rain Rain
7:35 AM 47.5 °F - 46.0 °F 95% 29.39 in 4.0 mi ENE 10.4 mph 16.1 mph 0.12 in Rain Rain
7:55 AM 47.7 °F - 46.4 °F 95% 29.38 in 5.0 mi ENE 9.2 mph - 0.18 in Rain Rain
8:15 AM 47.7 °F - 46.4 °F 95% 29.36 in 4.0 mi ENE 11.5 mph - 0.03 in Rain Rain
8:35 AM 47.8 °F - 46.6 °F 95% 29.36 in 4.0 mi ENE 9.2 mph - 0.09 in Rain Rain
8:36 AM 47.8 °F - 46.6 °F 95% 29.36 in 4.0 mi East 10.4 mph - 0.09 in Rain Rain
8:55 AM 48.4 °F - 46.9 °F 95% 29.34 in 4.0 mi ENE 10.4 mph 16.1 mph 0.14 in Rain Rain
9:15 AM 48.4 °F - 46.8 °F 94% 29.33 in 3.0 mi ENE 9.2 mph - 0.06 in Rain Heavy Rain
9:16 AM 48.4 °F - 46.8 °F 94% 29.32 in 3.0 mi ENE 8.1 mph - 0.06 in Rain Heavy Rain
9:35 AM 48.2 °F - 46.8 °F 95% 29.30 in 5.0 mi ENE 12.7 mph - 0.11 in Rain Rain
9:55 AM 48.2 °F - 46.8 °F 95% 29.28 in 4.0 mi ENE 12.7 mph - 0.15 in Rain Rain
9:56 AM 48.2 °F - 46.8 °F 95% 29.28 in 4.0 mi ENE 13.8 mph - 0.15 in Rain Rain
10:15 AM 48.2 °F - 46.9 °F 95% 29.26 in 4.0 mi NE 9.2 mph - 0.05 in Rain Rain
10:35 AM 48.4 °F - 47.3 °F 96% 29.25 in 4.0 mi NNE 4.6 mph - 0.11 in Rain Rain
10:55 AM 48.4 °F - 47.3 °F 96% 29.24 in 4.0 mi ENE 6.9 mph - 0.16 in Rain Rain
10:56 AM 48.6 °F - 47.5 °F 96% 29.24 in 4.0 mi ENE 5.8 mph 9.2 mph 0.16 in Rain Rain
11:15 AM 48.6 °F - 47.3 °F 95% 29.23 in 7.0 mi NE 5.8 mph - 0.01 in Rain Light Rain
11:35 AM 49.5 °F - 48.4 °F 96% 29.19 in 7.0 mi NE 5.8 mph - 0.02 in Rain Light Rain
11:55 AM 50.0 °F - 48.6 °F 95% 29.19 in 10.0 mi ENE 4.6 mph - 0.02 in   Overcast
12:15 PM 50.5 °F - 48.9 °F 94% 29.21 in 10.0 mi South 3.5 mph - N/A   Overcast
12:16 PM 50.5 °F - 48.9 °F 94% 29.21 in 10.0 mi South 3.5 mph - N/A   Overcast
12:35 PM 51.3 °F - 49.3 °F 93% 29.13 in 10.0 mi NNE 11.5 mph - N/A Rain Light Rain
12:55 PM 50.9 °F - 49.5 °F 95% 29.07 in 10.0 mi North 8.1 mph - N/A   Overcast
1:15 PM 52.2 °F - 49.6 °F 91% 29.13 in 10.0 mi SSW 11.5 mph 23.0 mph N/A   Mostly Cloudy
1:16 PM 52.3 °F - 49.6 °F 91% 29.13 in 10.0 mi South 9.2 mph 23.0 mph N/A   Mostly Cloudy
1:35 PM 56.1 °F - 50.4 °F 81% 29.11 in 10.0 mi South 11.5 mph - N/A   Scattered Clouds
1:55 PM 55.0 °F - 48.7 °F 79% 29.12 in 10.0 mi South 9.2 mph - N/A   Scattered Clouds
1:56 PM 55.0 °F - 48.6 °F 79% 29.12 in 10.0 mi South 9.2 mph - N/A   Scattered Clouds
2:15 PM 55.6 °F - 48.9 °F 78% 29.12 in 10.0 mi South 8.1 mph - N/A   Mostly Cloudy
2:35 PM 55.6 °F - 48.9 °F 78% 29.11 in 10.0 mi South 9.2 mph - N/A   Overcast
2:36 PM 55.6 °F - 49.1 °F 79% 29.11 in 10.0 mi South 11.5 mph - N/A   Overcast
2:55 PM 56.7 °F - 48.2 °F 73% 29.10 in 10.0 mi SSE 13.8 mph - N/A   Mostly Cloudy
2:56 PM 56.5 °F - 48.4 °F 74% 29.10 in 10.0 mi SSE 11.5 mph 16.1 mph N/A   Mostly Cloudy
3:15 PM 56.7 °F - 49.3 °F 76% 29.10 in 10.0 mi South 9.2 mph - N/A   Mostly Cloudy
3:35 PM 56.3 °F - 49.1 °F 77% 29.11 in 10.0 mi South 15.0 mph 24.2 mph N/A   Mostly Cloudy
3:55 PM 53.8 °F - 47.3 °F 79% 29.12 in 10.0 mi SSW 13.8 mph 24.2 mph N/A   Overcast
4:15 PM 53.1 °F - 46.4 °F 78% 29.13 in 10.0 mi SSW 11.5 mph 26.5 mph N/A   Overcast
4:35 PM 53.8 °F - 45.5 °F 74% 29.13 in 10.0 mi SSW 8.1 mph 16.1 mph N/A   Overcast
4:55 PM 53.1 °F - 45.5 °F 75% 29.13 in 10.0 mi SSW 10.4 mph 17.3 mph N/A   Overcast
4:56 PM 53.1 °F - 45.7 °F 76% 29.13 in 10.0 mi SSW 10.4 mph 17.3 mph N/A   Overcast
5:15 PM 52.2 °F - 45.5 °F 78% 29.13 in 10.0 mi SSW 11.5 mph 21.9 mph N/A Rain Light Rain
5:16 PM 52.0 °F - 45.7 °F 79% 29.13 in 10.0 mi SSW 11.5 mph 21.9 mph N/A Rain Light Rain
5:35 PM 51.3 °F - 46.4 °F 83% 29.13 in 10.0 mi South 11.5 mph - N/A   Overcast
5:36 PM 51.3 °F - 46.6 °F 84% 29.13 in 10.0 mi South 10.4 mph - N/A   Overcast
5:55 PM 50.0 °F - 46.9 °F 89% 29.14 in 10.0 mi South 9.2 mph - N/A Rain Light Rain
5:56 PM 50.0 °F - 46.9 °F 89% 29.14 in 10.0 mi South 10.4 mph - N/A Rain Light Rain
6:15 PM 49.5 °F - 46.4 °F 89% 29.13 in 10.0 mi South 8.1 mph - N/A Rain Rain
6:35 PM 49.1 °F - 46.4 °F 90% 29.13 in 10.0 mi South 8.1 mph - 0.01 in Rain Light Rain
6:36 PM 49.1 °F - 46.4 °F 90% 29.13 in 10.0 mi South 8.1 mph - 0.01 in Rain Light Rain
6:55 PM 49.1 °F - 46.4 °F 90% 29.14 in 10.0 mi SSW 5.8 mph - 0.01 in Rain Light Rain
7:15 PM 48.2 °F - 43.5 °F 84% 29.14 in 10.0 mi SSW 10.4 mph 17.3 mph N/A   Overcast
7:35 PM 47.3 °F - 42.8 °F 84% 29.14 in 10.0 mi South 8.1 mph - N/A   Mostly Cloudy
7:55 PM 46.9 °F - 43.0 °F 86% 29.14 in 10.0 mi South 9.2 mph 16.1 mph N/A   Overcast
8:15 PM 46.4 °F 41.1 °F 42.6 °F 87% 29.14 in 10.0 mi South 11.5 mph 16.1 mph N/A   Overcast
8:16 PM 46.4 °F 41.5 °F 42.4 °F 86% 29.14 in 10.0 mi South 10.4 mph 16.1 mph N/A   Overcast
8:35 PM 45.9 °F 40.0 °F 42.4 °F 88% 29.13 in 10.0 mi South 12.7 mph 16.1 mph N/A   Overcast
8:36 PM 45.9 °F 40.4 °F 42.4 °F 88% 29.13 in 10.0 mi South 11.5 mph 16.1 mph N/A   Overcast
8:55 PM 45.5 °F 40.8 °F 42.8 °F 90% 29.13 in 7.0 mi SSE 9.2 mph - N/A   Overcast
9:15 PM 45.5 °F 41.8 °F 43.0 °F 91% 29.13 in 10.0 mi SSE 6.9 mph - N/A   Overcast
9:16 PM 45.5 °F 42.5 °F 43.0 °F 91% 29.13 in 10.0 mi SSE 5.8 mph - N/A   Overcast
9:35 PM 45.5 °F 41.8 °F 42.8 °F 90% 29.13 in 10.0 mi SE 6.9 mph - N/A   Overcast
9:55 PM 45.5 °F 42.5 °F 42.8 °F 90% 29.13 in 10.0 mi SE 5.8 mph - N/A   Overcast
9:56 PM 45.5 °F 42.5 °F 42.8 °F 90% 29.13 in 10.0 mi SE 5.8 mph - N/A   Overcast
10:15 PM 45.5 °F 43.2 °F 42.8 °F 90% 29.13 in 10.0 mi SSE 4.6 mph - N/A   Overcast
10:35 PM 45.5 °F 43.2 °F 43.0 °F 91% 29.13 in 10.0 mi ESE 4.6 mph - N/A   Overcast
10:36 PM 45.5 °F 43.2 °F 43.0 °F 91% 29.13 in 10.0 mi ESE 4.6 mph - N/A   Overcast
10:55 PM 45.1 °F 43.7 °F 43.0 °F 92% 29.13 in 10.0 mi SE 3.5 mph - N/A   Overcast
10:56 PM 45.0 °F 42.6 °F 42.8 °F 92% 29.13 in 10.0 mi SE 4.6 mph - N/A   Overcast
11:15 PM 45.5 °F - 43.0 °F 91% 29.14 in 10.0 mi Calm Calm - N/A   Overcast
11:35 PM 45.5 °F - 43.7 °F 93% 29.14 in 10.0 mi Calm Calm - N/A   Overcast
11:55 PM 45.1 °F - 43.7 °F 95% 29.15 in 10.0 mi Calm Calm - N/A   Overcast